BEIDOU-2 IGSO-7

Last updated on Wed Sep 17 2025 00:02:50 GMT+0000 (Coordinated Universal Time)

1 43539U 18057A 25259.66268907 -.00000176 00000+0 00000+0 0 9995 2 43539 55.1684 165.4349 0092187 236.4958 304.4747 1.00283473 26387
UTC large
Height (km)
Speed (km/s)
/
Latitude / Longitude
Inclination (degrees)
Orbital Period (minutes)
Azimuth
Elevation
Range (km)
Doppler Factor

Next 0 passes for location: London (51.5072 / 0.1276)

Sorry there are no passes over London.